Regional Weather Roundup
Issued by NWS Newport/Morehead, NC

Current Version | Previous Version | Text Only | Print | Product List | Glossary On
Versions: 1 2 3 4 5 6 7 8 9 10 11 12 13 14 15 16 17 18 19 20 21 22 23 24 25 26 27 28 29 30 31 32 33 34 35 36 37 38 39 40 41 42 43 44 45 46 47 48 49 50
000 ASUS42 KMHX 292222 RWRMHX WEATHER ROUNDUP FOR EASTERN NORTH CAROLINA NATIONAL WEATHER SERVICE NEWPORT/MOREHEAD CITY NC 600 PM EDT MON SEP 29 2014 NOTE: "FAIR" INDICATES FEW OR NO CLOUDS BELOW 12,000 FEET WITH NO SIGNIFICANT WEATHER AND/OR OBSTRUCTIONS TO VISIBILITY NCZ015>017-031-032-045>047-102-103-292300- NORTH COAST CITY SKY/WX TMP DP RH WIND PRES REMARKS EDENTON CLOUDY 71 65 79 CALM 29.96S ELIZABETH CITY CLOUDY 72 65 78 NE5 29.95R KITTY HAWK CLOUDY 70 64 80 N5 29.95R MANTEO CLOUDY 70 63 77 NE7 29.95F $$ NCZ045>047-081-094-103-104-292300- CENTRAL COAST CITY SKY/WX TMP DP RH WIND PRES REMARKS FRISCO CLOUDY 70 66 87 NE7 29.94R SWANQUARTER N/A 72 N/A N/A VRB2 29.91S $$ NCZ095-097-098-100-101-292300- SOUTHERN COAST CITY SKY/WX TMP DP RH WIND PRES REMARKS BEAUFORT CLOUDY 72 66 81 N7 29.94S CEDAR ISLAND N/A 73 N/A N/A N8 29.97S JACKSONVILLE LGT RAIN 71 66 84 NW6 29.95S NEWPORT NOT AVBL PINEY ISLAND CLOUDY 75 67 76 NE7 29.94S HAZE WILMINGTON LGT RAIN 70 68 93 N3 29.96S $$ NCZ011>013-027>030-043-044-078>080-089-090>093-098-292300- COASTAL PLAIN CITY SKY/WX TMP DP RH WIND PRES REMARKS AHOSKIE LGT RAIN 65 63 91 CALM 29.98S CLINTON LGT RAIN 67 67 99 CALM 29.97F ELIZABETHTOWN LGT RAIN 66 65 94 CALM 29.97S GOLDSBORO CLOUDY 68 68 98 CALM 29.96S GREENVILLE CLOUDY 70 64 83 CALM 29.99S HAVELOCK CLOUDY 74 65 73 N8 29.96R KENANSVILLE LGT RAIN 67 66 95 CALM 29.98S KINSTON CLOUDY 70 66 88 CALM 29.98S NEW BERN CLOUDY 74 64 71 N5 29.96S RICHLANDS CLOUDY 70 64 83 CALM 29.97S ROANOKE RAPIDS NOT AVBL ROCKY MOUNT LGT RAIN 66 65 96 CALM 29.98S FOG WASHINGTON CLOUDY 70 65 85 CALM 29.98R WHITEVILLE DRIZZLE 68 66 93 CALM 29.96S $$ AMZ130-135-150-152-154-156-158-170-250-252-270-ANZ085-086-088-633-658-670-292300- MARINE OBSERVATIONS STATION/POSITION TIME TEMP WIND PRES WAVE SWELL AIR SEA DIR/SP/G HT/PER HT/PER (UTC) (F) (DEG/KT/KT) (MB) (FT/S) (FT/S) CHESAPEAKE LIGHT 2200 71 CALM / 1 1015.0 BUOY 44014 2200 71 72 20/ 8/ 10 1013.5 3/ 7 2/ 7 DUCK 2200 71 73 20/ 7/ 8 1013.6 2E DUCK 2200 N/A 2/ 7 OREGON INLET 2200 71 73 360/ 6/ 11 1014.1 BUOY 44095 2200 73 N/A 3/ 7 20E OREGON INLET NOT AVBL HATTERAS CG 2200 72 76 20/ 12/ 14 1014.2 DIAMOND BUOY 2200 75 10/ 12/ 14 1013.1 3/ 7 2/ 7 CAPE LOOKOUT 2200 73 360/ 8/ 10 1013.6 BEAUFORT LAB 2200 73 75 10/ 6/ 8 1013.4 30 SE NEW RIVER 2200 75 80 20/ 12/ 14 1013.2 2/ 8 2/ 8 5 SE WRIGHTSVILL 2200 69 76 320/ 10/ 12 N/A BUOY 41002 2100 80 81 130/ 6/ 8 1012.8 3/ 8 3/ 8 BUOY 41004 2200 76 81 60/ 12/ 14 1011.8 3/ 7 2/ 7 $$

USA.gov is the U.S. government's official web portal to all federal, state and local government web resources and services.